Home > Weather > Concepción > Past weeks

Flag for Chile Past Weather in Concepción, Chile — Yesterday and Last 2 Weeks

Now
41 °F

Fog.


Feels Like: 38 °F
Forecast: 47 / 57 °F
Wind: 5 mph from Southeast

Location: Concepcion Airport

Current Time: Aug 26, 2016 at 5:45:01 AM

Latest Report: Aug 26, 2016 at 5:00 AM


Visibility: 2 mi

Pressure: 30.18 "Hg

Humidity: 100%

Dew Point: 41 °F

Location of ConcepciónLocation

Past Weather in Concepción — Graph

°F

Concepción Temperature Yesterday

Maximum temperature yesterday: 55 °F (at 3:00 AM)
Minimum temperature yesterday: 45 °F (at 11:00 PM)
Average temperature yesterday: 54 °F

High & Low Weather Summary for the Past Weeks

 TemperatureHumidityPressure
High68 °F (Aug 21, 3:00 PM)100% (Aug 11, 8:00 AM)30.42 "Hg (Aug 11, 8:00 AM)
Low39 °F (Aug 21, 6:00 AM)24% (Aug 21, 2:00 PM)29.86 "Hg (Aug 16, 4:00 AM)
Average53 °F85%30.12 "Hg
* Reported Aug 11 3:00 AM — Aug 26 4:00 AM, Concepción, Weather by CustomWeather, © 2016

Note: Actual official high and low records may vary slightly from our data, if they occured in-between our weather recording intervals... More about our weather records

Advertising

Concepción Weather History for the Previous 24 Hours

Scroll right to see more
 ConditionsComfort  
Time TempWeatherWind HumidityBarometerVisibility
4:00 AM
Fri, Aug 26
41 °FFog.2 mph100%30.18 "Hg4 mi
3:00 AM43 °FFog.1 mph93%30.18 "Hg4 mi
2:00 AM43 °FQuite cool.1 mph93%30.18 "Hg1 mi
1:00 AM43 °FQuite cool.No wind93%30.18 "Hg0 mi
12:00 AM45 °FQuite cool.No wind93%30.18 "Hg1 mi
11:00 PM
Thu, Aug 25
45 °FFog.2 mph100%30.18 "Hg4 mi
10:00 PM46 °FPassing clouds.No wind93%30.15 "HgN/A
9:00 PM50 °FPassing clouds.3 mph82%30.15 "HgN/A
8:00 PM52 °FPassing clouds.7 mph82%30.12 "HgN/A
7:00 PM54 °FBroken clouds.8 mph82%30.12 "HgN/A
6:00 PM55 °FPartly sunny.9 mph77%30.09 "HgN/A
5:00 PM54 °FPartly sunny.5 mph82%30.07 "HgN/A
4:00 PM52 °FDrizzle. Fog.9 mph94%30.07 "Hg2 mi
3:00 PM52 °FDrizzle. Cloudy.12 mph100%30.07 "Hg1 mi
2:00 PM55 °FLight rain. Cloudy.13 mph94%30.04 "Hg2 mi
1:00 PM55 °FDrizzle. Fog.12 mph94%30.07 "Hg2 mi
12:00 PM55 °FScattered showers. Cloudy.14 mph94%30.04 "Hg4 mi
11:00 AM55 °FScattered showers. Overcast.14 mph94%30.04 "Hg5 mi
10:00 AM55 °FMore clouds than sun.20 mph88%30.01 "HgN/A
9:00 AM55 °FBroken clouds.17 mph88%29.98 "HgN/A
8:00 AM55 °FPartly cloudy.17 mph88%30.01 "HgN/A
7:00 AM55 °FOvercast.16 mph88%29.98 "HgN/A
6:00 AM55 °FPassing clouds.16 mph88%29.98 "HgN/A
5:00 AM55 °FOvercast.16 mph88%29.98 "HgN/A
Weather by CustomWeather, © 2016

See weather overviewHow to use our weather pages